Total_Precipitation_Accumulation
0.03 0.06 0.11 0.15 0.15 0.12 0.08 0.05 0.07 0.10 0.19 0.18 0.24 0.29 0.38 0.36 0.31 0.31 0.28 0.23 0.24 0.28 0.42 0.47 0.47 0.44 0.43 0.49 0.58 0.67 0.78 0.93 1.11 1.23 1.23 1.15 1.12 1.16 1.19 1.23 1.26 1.38 1.39 1.34
0.03 0.06 0.10 0.12 0.13 0.10 0.07 0.05 0.05 0.07 0.13 0.15 0.24 0.29 0.34 0.30 0.29 0.34 0.37 0.30 0.30 0.39 0.50 0.49 0.45 0.45 0.45 0.51 0.60 0.64 0.72 0.82 0.99 1.17 1.26 1.22 1.20 1.29 1.36 1.41 1.52 1.56 1.50 1.46
0.04 0.07 0.09 0.15 0.12 0.09 0.08 0.07 0.07 0.10 0.13 0.16 0.23 0.34 0.41 0.39 0.43 0.41 0.35 0.28 0.28 0.36 0.41 0.46 0.40 0.38 0.39 0.45 0.59 0.70 0.83 0.93 1.01 1.12 1.22 1.25 1.25 1.34 1.43 1.43 1.42 1.47 1.46 1.41
0.09 0.10 0.15 0.15 0.12 0.11 0.10 0.11 0.14 0.17 0.18 0.22 0.25 0.33 0.39 0.40 0.39 0.39 0.41 0.46 0.49 0.57 0.57 0.52 0.48 0.48 0.51 0.58 0.69 0.77 0.84 0.93 0.99 1.09 1.20 1.31 1.44 1.51 1.56 1.60 1.60 1.57 1.50 1.43
0.16 0.15 0.17 0.20 0.18 0.17 0.19 0.23 0.23 0.30 0.35 0.34 0.33 0.34 0.41 0.45 0.46 0.50 0.48 0.49 0.58 0.66 0.70 0.61 0.62 0.62 0.69 0.77 0.87 0.94 0.96 1.04 1.11 1.17 1.30 1.38 1.45 1.56 1.64 1.70 1.66 1.65 1.64 1.62
0.24 0.26 0.27 0.26 0.27 0.22 0.24 0.45 0.41 0.42 0.49 0.47 0.48 0.61 0.72 0.72 0.61 0.59 0.60 0.60 0.66 0.66 0.65 0.71 0.75 0.77 0.83 0.93 1.04 1.11 1.10 1.13 1.18 1.32 1.40 1.40 1.39 1.45 1.49 1.52 1.52 1.52 1.52 1.57
0.35 0.34 0.32 0.29 0.29 0.30 0.53 0.77 0.75 0.72 0.70 0.62 0.66 0.72 0.71 0.65 0.68 0.65 0.68 0.75 0.72 0.70 0.72 0.74 0.74 0.76 0.86 0.97 1.09 1.16 1.16 1.15 1.21 1.29 1.43 1.46 1.47 1.43 1.37 1.35 1.35 1.41 1.46 1.51
0.54 0.63 0.63 0.43 0.45 0.61 0.79 0.78 0.90 0.79 0.69 0.67 0.65 0.64 0.60 0.61 0.71 0.77 0.79 0.83 0.80 0.76 0.71 0.70 0.75 0.79 0.86 0.97 1.01 1.05 1.05 1.06 1.10 1.13 1.14 1.20 1.32 1.36 1.35 1.35 1.35 1.40 1.48 1.51
0.74 0.78 0.70 0.58 0.60 0.65 0.62 0.63 0.75 0.71 0.62 0.62 0.59 0.56 0.53 0.58 0.65 0.67 0.71 0.76 0.76 0.77 0.76 0.75 0.79 0.84 0.92 0.94 0.97 0.98 1.05 1.11 1.12 1.09 1.11 1.17 1.22 1.23 1.21 1.17 1.13 1.13 1.27 1.36
0.98 0.96 0.82 0.68 0.57 0.57 0.56 0.56 0.59 0.67 0.71 0.67 0.61 0.56 0.55 0.57 0.62 0.70 0.76 0.76 0.75 0.74 0.76 0.85 0.91 0.97 0.94 0.89 0.94 1.02 1.06 1.06 1.08 1.11 1.08 1.08 1.16 1.13 1.08 1.06 1.03 1.02 1.18 1.32
1.37 1.41 1.19 1.01 0.85 0.74 0.68 0.65 0.66 0.72 0.76 0.80 0.79 0.76 0.73 0.65 0.62 0.63 0.69 0.68 0.68 0.74 0.80 0.87 0.90 0.95 1.00 0.97 0.97 1.01 0.98 0.94 1.00 1.05 1.01 0.96 1.04 1.11 1.02 1.02 1.05 1.07 1.22 1.44
1.59 1.47 1.40 1.29 1.04 0.88 0.83 0.83 0.77 0.79 0.81 0.81 0.80 0.80 0.77 0.75 0.65 0.58 0.58 0.67 0.73 0.76 0.82 0.87 0.88 0.90 0.91 0.92 0.97 1.02 1.05 0.98 0.92 0.92 0.93 0.96 1.00 1.02 1.01 0.89 0.88 0.85 0.92 1.06
1.22 1.22 1.24 1.17 1.03 0.86 0.82 0.80 0.83 0.81 0.82 0.80 0.78 0.71 0.65 0.68 0.70 0.65 0.65 0.68 0.76 0.81 0.84 0.85 0.84 0.84 0.84 0.88 0.97 1.04 1.05 1.01 0.93 0.83 0.79 0.80 0.84 0.89 0.92 0.86 0.69 0.64 0.64 0.65
1.16 1.14 1.19 1.12 1.03 0.87 0.83 0.73 0.69 0.67 0.66 0.67 0.70 0.68 0.63 0.62 0.66 0.70 0.74 0.78 0.85 0.90 0.85 0.81 0.80 0.79 0.77 0.77 0.81 0.81 0.82 0.86 0.81 0.74 0.72 0.70 0.70 0.71 0.72 0.80 0.83 0.73 0.61 0.53
1.04 1.04 1.16 1.10 0.98 0.91 0.89 0.79 0.65 0.57 0.55 0.59 0.61 0.60 0.61 0.66 0.71 0.78 0.81 0.87 0.93 0.90 0.82 0.75 0.74 0.75 0.78 0.80 0.79 0.76 0.79 0.77 0.69 0.67 0.70 0.72 0.75 0.73 0.71 0.75 0.84 0.91 0.84 0.63
0.95 0.97 0.98 1.02 1.08 1.01 0.93 0.86 0.77 0.67 0.59 0.58 0.59 0.58 0.55 0.58 0.66 0.74 0.80 0.90 0.99 0.99 0.89 0.82 0.74 0.66 0.64 0.73 0.78 0.74 0.73 0.80 0.72 0.66 0.66 0.71 0.73 0.72 0.75 0.84 0.92 1.03 1.02 0.78
0.97 1.00 0.93 0.93 1.01 1.01 0.94 0.86 0.80 0.76 0.70 0.67 0.65 0.61 0.59 0.57 0.66 0.78 0.83 0.82 0.83 0.83 0.82 0.79 0.69 0.58 0.55 0.62 0.66 0.67 0.64 0.66 0.67 0.62 0.66 0.71 0.73 0.74 0.77 0.87 0.98 1.04 0.98 0.76
0.86 0.80 0.75 0.76 0.81 0.83 0.86 0.85 0.82 0.76 0.73 0.71 0.67 0.61 0.58 0.61 0.72 0.85 0.91 0.90 0.80 0.71 0.70 0.67 0.58 0.51 0.53 0.57 0.60 0.64 0.62 0.61 0.61 0.61 0.63 0.65 0.67 0.74 0.81 0.93 1.03 1.07 0.94 0.76
0.75 0.70 0.66 0.66 0.64 0.65 0.71 0.76 0.77 0.72 0.66 0.62 0.61 0.58 0.53 0.53 0.65 0.78 0.83 0.93 0.97 0.90 0.75 0.62 0.56 0.47 0.48 0.51 0.52 0.55 0.57 0.60 0.62 0.65 0.67 0.64 0.65 0.70 0.73 0.82 0.95 1.00 0.90 0.82
0.72 0.72 0.67 0.64 0.62 0.58 0.57 0.58 0.62 0.65 0.59 0.52 0.49 0.47 0.44 0.48 0.64 0.81 0.86 0.93 1.02 0.97 0.83 0.68 0.46 0.38 0.36 0.38 0.42 0.40 0.41 0.41 0.41 0.44 0.45 0.48 0.52 0.56 0.58 0.63 0.74 0.81 0.78 0.82
0.75 0.74 0.69 0.63 0.64 0.59 0.54 0.49 0.49 0.53 0.52 0.52 0.50 0.48 0.45 0.46 0.52 0.72 0.99 1.11 0.96 0.82 0.75 0.73 0.48 0.32 0.28 0.31 0.38 0.35 0.35 0.35 0.35 0.38 0.38 0.39 0.42 0.47 0.52 0.58 0.64 0.67 0.72 0.76
0.77 0.71 0.64 0.60 0.59 0.61 0.58 0.52 0.49 0.50 0.48 0.48 0.46 0.43 0.43 0.42 0.45 0.57 0.74 0.94 0.90 0.82 0.61 0.55 0.47 0.33 0.27 0.24 0.23 0.27 0.31 0.36 0.38 0.41 0.42 0.42 0.45 0.49 0.53 0.56 0.59 0.62 0.68 0.75
0.79 0.75 0.67 0.60 0.55 0.57 0.56 0.54 0.49 0.46 0.46 0.43 0.41 0.40 0.40 0.40 0.43 0.59 0.69 0.63 0.64 0.66 0.51 0.44 0.44 0.37 0.29 0.23 0.23 0.24 0.27 0.32 0.36 0.38 0.38 0.39 0.44 0.48 0.53 0.55 0.57 0.60 0.69 0.74
0.73 0.72 0.69 0.66 0.60 0.55 0.56 0.55 0.49 0.44 0.43 0.42 0.43 0.43 0.41 0.39 0.41 0.44 0.51 0.58 0.62 0.62 0.52 0.50 0.44 0.35 0.30 0.29 0.32 0.32 0.31 0.32 0.33 0.33 0.34 0.38 0.43 0.48 0.57 0.63 0.66 0.65 0.67 0.66
0.70 0.67 0.64 0.65 0.60 0.52 0.50 0.48 0.47 0.47 0.45 0.44 0.43 0.43 0.39 0.37 0.42 0.45 0.47 0.51 0.56 0.54 0.49 0.49 0.45 0.42 0.37 0.39 0.42 0.42 0.39 0.38 0.38 0.37 0.38 0.42 0.49 0.58 0.63 0.66 0.66 0.61 0.59 0.58
0.61 0.57 0.57 0.55 0.50 0.47 0.46 0.46 0.48 0.49 0.48 0.47 0.49 0.46 0.41 0.39 0.43 0.49 0.56 0.57 0.55 0.53 0.46 0.42 0.39 0.41 0.40 0.45 0.50 0.51 0.48 0.45 0.45 0.44 0.47 0.53 0.59 0.65 0.62 0.56 0.53 0.52 0.50 0.47
0.54 0.52 0.52 0.52 0.51 0.47 0.44 0.43 0.48 0.55 0.54 0.50 0.50 0.49 0.47 0.50 0.54 0.58 0.58 0.58 0.57 0.53 0.47 0.41 0.37 0.34 0.35 0.39 0.43 0.47 0.48 0.49 0.47 0.47 0.50 0.53 0.54 0.52 0.47 0.43 0.44 0.42 0.39 0.39